RH
47 49 54 55 62 69 68 70 73 77 81 78 71 50 19 9 10 6 7 8 9 13 14 15 15 15 16 14 18 28 31 28 25 27 34 39 39 36 29 24 21 17
57 62 71 76 81 84 79 77 78 79 75 68 67 52 21 9 10 7 7 8 10 12 12 14 14 13 15 12 13 19 17 15 16 16 17 19 19 18 16 15 16 15
69 75 83 91 95 92 85 82 81 79 70 63 64 48 20 9 9 7 8 9 10 12 12 12 12 11 11 11 11 11 11 12 13 12 13 13 12 13 13 14 14 13
64 75 88 96 98 93 86 84 82 73 61 60 59 37 14 10 10 7 8 9 10 11 11 10 11 11 11 11 12 12 12 12 12 13 13 13 15 16 17 19 20 22
55 60 78 91 95 90 86 88 82 63 53 58 51 26 12 11 9 8 9 9 10 10 10 12 14 17 20 21 23 24 26 28 30 32 32 34 36 38 40 42 42 43
54 50 63 80 90 89 87 89 81 61 52 57 46 22 13 13 10 10 10 9 11 12 15 21 26 32 36 39 42 44 46 49 50 52 54 56 57 56 57 56 56 57
50 55 64 74 82 82 83 88 85 70 59 57 46 25 15 14 13 13 12 13 15 19 26 35 41 46 50 51 54 54 54 56 57 58 58 59 60 60 59 58 57 57
39 45 51 62 69 71 78 87 88 79 66 56 47 32 22 17 16 18 18 19 24 29 38 45 48 52 53 54 56 56 56 56 56 57 56 57 57 57 56 56 55 55
32 33 35 43 47 52 68 83 90 83 68 58 50 40 34 25 19 21 24 28 34 39 45 49 50 52 53 54 55 55 56 56 55 56 55 54 54 54 54 53 54 54
30 31 32 32 31 39 57 77 89 85 74 69 58 45 42 38 29 25 27 31 39 45 49 52 52 52 53 54 55 55 55 55 55 55 54 54 53 52 52 53 54 56
32 30 31 30 29 36 51 69 87 90 83 80 66 47 43 47 43 37 33 32 37 44 49 53 54 54 54 55 54 55 55 55 55 54 54 54 53 54 57 61 64 67
38 33 31 31 31 36 44 58 79 90 88 80 66 48 41 45 47 47 43 39 38 40 45 50 53 54 54 55 55 55 55 54 53 53 53 52 54 61 68 72 76 80
44 39 33 31 34 37 41 51 70 86 88 76 59 47 42 42 44 45 47 46 45 44 45 47 50 52 54 54 54 54 54 53 52 52 52 55 62 71 77 81 85 88
46 44 37 33 34 38 41 48 61 79 90 81 61 48 44 43 42 42 43 45 46 48 48 49 50 51 52 53 53 53 52 52 52 53 56 62 71 76 80 84 87 88
47 45 41 35 35 41 46 49 55 67 83 87 74 58 50 48 47 43 41 42 44 46 48 50 52 53 53 54 55 54 54 54 55 57 64 72 77 79 81 84 86 88
48 47 42 36 36 42 50 57 60 62 69 80 84 78 69 65 62 54 46 43 42 41 43 47 52 56 58 61 63 61 60 62 64 67 74 82 85 85 86 87 89 91
49 49 47 41 38 39 46 58 69 70 68 72 79 82 79 76 74 69 63 56 49 45 45 50 56 60 61 67 74 75 73 72 73 77 84 89 91 91 90 91 92 94
50 52 52 49 45 42 43 51 62 69 69 68 71 76 79 78 76 76 75 72 67 62 61 63 70 74 73 71 75 80 85 86 84 85 89 93 93 92 91 91 89 87
53 57 59 57 53 48 45 46 50 55 59 61 65 74 81 83 82 81 80 79 78 76 75 76 79 82 83 80 77 76 79 87 92 89 83 86 92 92 88 84 81 80
48 53 57 59 59 54 47 43 42 45 50 51 55 66 77 81 83 86 87 87 87 86 86 87 86 86 87 88 87 81 74 79 90 88 78 80 90 90 82 79 81 82
42 41 45 52 58 59 54 47 42 42 45 46 47 51 56 59 63 70 72 72 75 81 85 87 85 84 84 88 92 90 82 77 81 83 82 86 91 88 82 80 76 67
40 39 40 45 54 61 62 59 55 51 49 48 47 48 47 44 43 47 49 51 57 65 70 72 73 75 78 81 89 95 93 88 86 87 90 91 90 88 82 71 56 46
41 43 48 53 59 65 67 67 64 61 57 53 51 53 54 50 44 41 43 49 55 58 58 58 61 68 73 76 84 93 96 97 98 96 92 90 88 82 68 53 44 44
44 47 50 54 59 65 68 68 69 69 66 61 57 55 53 51 50 48 47 52 58 61 62 62 61 64 70 73 80 89 92 95 98 95 88 83 74 60 48 45 45 45
45 46 46 45 48 51 52 55 60 64 65 64 64 63 57 52 54 58 60 62 65 67 67 65 64 66 68 70 78 85 88 91 94 88 76 64 53 44 42 44 44 40
46 45 46 45 45 44 43 43 45 49 54 58 61 64 65 62 61 69 74 69 68 77 78 66 60 64 66 67 74 79 78 78 76 67 55 46 43 43 43 42 38 35
Wind_Speed
18 19 19 19 20 22 23 22 21 20 17 13 13 12 9 7 6 5 4 4 5 6 6 7 7 8 8 9 10 10 10 11 11 11 11 11 11 11 11 11 10 10
18 19 18 16 18 21 21 19 18 16 12 11 12 12 9 6 5 4 4 4 5 6 6 7 7 8 8 9 10 10 11 12 12 12 12 12 11 11 10 10 9 9
15 16 15 14 16 18 17 16 14 12 11 11 12 11 8 5 4 4 4 5 5 6 6 7 7 9 9 10 11 11 12 13 12 12 12 11 11 11 10 10 9 9
13 13 13 13 14 14 14 13 12 10 11 12 11 9 7 4 3 4 4 5 5 6 7 8 9 11 12 12 13 14 15 15 15 14 13 13 13 12 12 11 10 10
11 11 9 10 11 12 12 11 10 11 12 12 9 7 5 3 3 4 5 5 6 8 9 10 11 12 13 13 14 15 16 16 16 16 15 15 14 13 12 11 10 9
11 10 9 10 10 11 11 9 10 13 13 12 8 6 4 3 4 5 6 7 8 10 11 11 12 13 13 13 14 15 15 16 16 16 16 15 14 13 11 10 10 8
9 10 10 11 11 11 10 10 12 14 14 12 9 6 5 5 6 6 7 9 10 11 12 12 13 14 14 14 14 14 14 15 15 14 14 14 12 12 10 9 8 7
6 8 9 10 11 10 10 10 12 14 15 14 11 8 7 8 8 9 9 10 10 11 12 13 13 14 14 14 14 13 13 13 13 13 12 12 11 11 10 8 8 7
6 7 7 8 9 8 9 10 12 14 16 16 14 12 11 11 12 12 11 11 11 12 12 12 13 12 12 12 12 12 11 11 10 10 9 9 9 9 9 8 8 8
7 8 9 9 8 7 8 10 13 15 16 17 16 16 15 13 14 14 14 15 14 13 13 13 13 13 12 12 11 11 11 11 10 9 9 9 8 8 8 8 8 9
9 10 11 11 10 8 8 10 13 16 16 17 18 20 19 17 16 16 16 17 17 16 16 16 15 15 15 14 14 13 13 13 12 12 12 12 11 11 10 10 11 11
12 12 13 13 12 11 9 10 13 16 17 17 20 23 22 20 19 19 18 19 19 19 19 19 19 18 18 17 17 16 16 15 15 15 15 15 14 13 13 13 13 13
13 14 15 14 13 12 11 10 12 16 18 20 21 24 24 23 23 22 21 21 20 20 21 21 21 21 21 20 20 20 19 19 19 19 18 18 17 17 16 15 16 15
14 15 16 15 14 13 13 12 12 15 18 21 23 25 25 25 25 25 24 24 23 23 23 23 24 24 24 23 23 22 22 22 22 21 21 20 20 19 19 18 18 18
13 14 15 16 15 14 14 14 14 15 18 21 24 26 26 27 27 27 27 27 27 27 27 27 27 27 27 27 26 26 25 24 24 24 23 23 23 22 22 21 21 20
12 14 15 16 16 16 16 15 15 16 18 20 23 25 27 28 29 29 30 30 30 30 31 31 29 29 29 29 29 29 29 28 27 27 26 25 25 24 23 23 23 22
11 13 14 16 17 18 18 17 17 17 18 19 21 24 26 28 30 30 31 32 32 33 34 34 33 32 32 32 31 31 32 31 30 30 29 28 27 26 25 25 24 22
12 13 14 17 18 19 19 19 19 19 19 19 21 22 25 27 29 30 31 32 34 35 36 37 37 35 34 35 35 35 34 34 34 33 31 30 30 29 28 27 23 19
13 14 14 16 18 20 21 21 21 21 21 20 21 22 25 27 28 30 32 34 35 37 38 39 40 39 38 37 39 41 40 38 38 37 36 35 33 30 26 23 19 17
15 15 16 16 17 20 22 22 23 23 23 22 22 23 25 26 27 29 32 34 35 36 37 39 40 41 40 38 38 42 45 44 42 41 40 37 33 29 24 20 19 18
19 19 19 19 19 20 21 23 24 25 24 24 24 24 25 25 26 27 28 30 31 32 33 34 33 34 34 33 32 36 43 47 46 44 41 34 27 24 22 20 19 18
24 24 24 23 22 22 22 24 25 25 26 26 27 27 26 26 26 25 25 26 27 28 29 28 27 27 26 25 26 28 34 41 44 43 39 31 23 20 20 20 20 19
27 26 25 25 25 25 25 26 27 27 27 27 28 27 27 27 27 26 26 25 26 26 27 26 25 25 23 22 22 23 26 30 32 32 29 24 20 20 21 21 21 21
26 25 25 25 25 26 27 27 28 29 30 30 29 28 28 28 28 27 27 27 26 26 26 26 25 24 22 20 20 20 20 21 23 23 22 20 20 21 22 21 21 21
28 28 27 27 28 28 28 28 28 28 30 31 30 30 31 30 28 27 27 28 27 26 26 25 25 24 21 19 19 20 19 20 22 22 21 21 21 21 21 20 21 21
32 31 30 30 30 30 31 31 30 30 30 31 31 32 32 32 30 28 28 28 27 25 24 24 23 22 20 19 19 20 21 21 22 22 22 21 21 21 21 21 21 21
Wind_Direction
255 262 268 275 283 286 285 286 292 298 297 288 285 291 299 310 305 288 264 237 215 199 186 174 169 168 167 166 163 160 157 153 149 148 149 148 148 150 154 157 161 165
258 258 260 268 280 283 281 283 291 290 282 283 289 290 292 301 293 267 241 223 210 199 185 172 168 167 166 165 162 159 155 151 148 149 150 149 149 151 152 152 154 154
257 256 254 262 274 278 277 282 287 279 268 276 284 285 282 284 277 248 221 207 198 189 178 166 159 155 151 149 149 147 143 139 138 138 139 139 137 136 134 134 137 136
258 258 252 253 262 268 273 278 276 263 259 268 279 278 269 260 254 231 206 191 184 175 164 153 146 141 137 136 135 133 130 126 125 126 126 125 124 123 122 123 124 121
258 258 245 240 251 265 271 268 254 246 253 263 271 266 249 230 214 203 186 174 168 162 155 148 143 138 135 133 131 129 127 125 125 125 124 123 122 122 121 121 119 117
252 254 247 243 249 262 268 256 237 237 248 259 258 242 223 202 190 181 167 164 162 159 156 151 147 142 138 137 135 132 130 129 129 129 128 128 128 128 130 130 129 130
248 250 251 251 252 257 260 250 236 234 242 249 242 220 201 188 186 181 170 169 169 166 162 158 154 150 148 146 144 142 140 138 138 137 137 139 140 143 147 149 152 158
247 244 247 249 251 256 254 244 234 230 235 238 226 206 198 191 191 190 183 181 182 179 173 168 166 162 159 158 156 155 153 152 153 153 153 156 159 163 169 175 183 189
263 252 247 246 251 257 252 241 231 224 228 231 222 207 202 198 196 195 195 195 195 192 187 182 180 177 174 174 172 172 173 172 173 174 176 181 184 189 196 202 207 214
275 268 259 255 258 260 252 240 227 217 220 227 223 213 207 203 201 201 203 205 204 203 201 198 197 195 194 194 194 195 196 195 197 200 205 212 217 224 231 238 242 245
272 272 270 267 266 263 253 241 226 216 216 222 220 214 211 209 208 208 209 210 211 211 211 211 211 210 209 210 211 212 212 214 216 218 221 225 231 238 244 251 257 260
269 269 271 272 270 267 259 246 230 218 216 217 215 213 214 215 216 216 216 215 216 216 217 219 220 220 220 220 220 221 222 224 227 230 233 236 238 241 243 247 252 257
273 271 271 272 273 270 263 254 240 226 219 216 213 213 217 220 222 224 224 224 223 222 223 225 225 226 226 226 227 229 230 231 233 235 238 240 242 243 245 248 250 254
275 272 271 272 273 271 265 258 247 234 225 219 215 215 219 224 227 230 232 232 232 231 231 232 232 233 233 233 234 235 236 237 238 240 242 244 245 246 247 249 252 257
277 274 272 271 271 268 262 255 248 240 231 225 221 219 222 227 232 234 236 237 238 238 237 237 237 239 241 243 243 243 244 244 245 246 247 247 248 249 252 255 259 265
274 277 275 272 269 266 261 255 250 244 236 229 225 224 227 231 235 238 240 241 243 245 245 243 242 243 246 248 250 250 250 249 248 248 248 249 250 253 256 260 262 265
260 270 275 274 271 267 265 262 256 250 243 236 231 231 233 236 239 242 244 245 247 249 251 252 251 248 247 248 249 251 251 251 250 249 249 251 253 256 261 264 261 259
255 262 270 274 273 270 268 266 263 259 253 247 242 241 241 242 243 245 247 249 251 253 255 257 257 254 250 248 248 250 251 253 252 251 253 257 257 259 262 262 256 256
261 260 265 271 274 274 271 268 266 264 261 257 252 247 246 247 247 247 249 251 253 255 257 259 260 259 257 253 251 250 250 252 254 255 258 261 260 260 261 257 256 264
264 260 259 262 267 272 274 272 269 267 264 263 258 252 249 250 250 250 250 251 253 255 256 258 260 261 260 258 254 250 247 249 253 255 257 257 255 257 261 261 264 268
269 267 264 260 258 262 268 271 271 269 266 265 263 258 255 254 254 253 252 253 254 254 255 256 258 260 260 259 256 251 246 246 249 252 256 255 250 252 259 260 259 257
275 275 270 262 257 256 259 263 266 268 267 266 265 263 261 260 260 258 257 256 255 254 254 255 256 258 259 257 254 251 249 248 250 254 255 251 244 245 250 249 248 249
279 277 271 263 257 255 256 258 260 263 265 265 265 264 263 263 263 263 261 258 255 253 253 254 256 259 261 258 253 250 250 251 253 254 251 242 236 240 242 241 245 251
275 273 271 266 261 258 257 257 257 258 260 261 263 265 265 264 263 263 263 261 257 253 251 253 255 258 259 258 251 246 245 244 242 243 243 238 236 238 240 244 251 259
271 270 269 267 265 262 260 259 258 257 257 257 258 261 263 263 261 260 258 257 254 250 248 249 252 254 254 251 245 240 237 233 231 232 234 235 236 239 245 254 260 266
270 268 266 265 264 263 262 260 259 258 257 256 254 256 258 259 258 255 252 249 248 246 246 246 248 249 247 243 239 235 232 230 230 231 232 234 239 246 254 260 265 269